Location: Voyageurs National Park
(48.5020°N, 92.9292°W)
Time: 16:45:51
(UTC-06:00)

PCSat - Visible Passes

Search period start: 27 February 2017 00:00
Search period end: 09 March 2017 00:00
Orbit: 785 x 795 km, 67.1° (Epoch: 27 February)

Date Brightness Start Highest point End Pass type
(mag) Time Alt. Az. Time Alt. Az. Time Alt. Az.
27 Feb 12.0 19:08:23 10° NW 19:11:13 14° NNW 19:14:02 10° NNE visible
27 Feb 12.1 20:55:41 10° N 20:57:09 11° N 20:58:17 10° NNE visible
27 Feb 12.4 22:38:32 10° NNW 22:39:00 12° NNW 22:39:00 12° NNW visible
28 Feb 11.9 18:36:42 10° WNW 18:40:00 16° NNW 18:43:17 10° NNE visible
28 Feb 12.1 20:24:41 10° N 20:25:51 11° N 20:27:02 10° NNE visible
28 Feb 12.1 22:07:46 10° NNW 22:08:59 14° N 22:08:59 14° N visible
01 Mar 12.1 19:53:24 10° NNW 19:54:34 11° N 19:55:42 10° N visible
01 Mar 11.9 21:37:01 10° NNW 21:38:57 15° N 21:38:57 15° N visible
02 Mar 12.0 19:21:51 10° NNW 19:23:15 11° N 19:24:39 10° N visible
02 Mar 11.8 21:06:16 10° NNW 21:08:56 14° NNE 21:08:56 14° NNE visible
02 Mar 12.3 22:49:00 10° NNW 22:49:39 13° NNW 22:49:39 13° NNW visible
03 Mar 12.0 18:50:10 10° NNW 18:51:58 11° N 18:53:46 10° N visible
03 Mar 11.8 20:35:30 10° N 20:37:56 13° NNE 20:38:55 12° NNE visible
03 Mar 12.0 22:18:13 10° NNW 22:19:38 17° NNW 22:19:38 17° NNW visible
04 Mar 11.9 20:04:42 10° N 20:06:40 12° NNE 20:08:38 10° NNE visible
04 Mar 11.7 21:47:26 10° NNW 21:49:37 20° N 21:49:37 20° N visible
05 Mar 11.9 19:33:51 10° N 19:35:23 11° N 19:36:55 10° NNE visible
05 Mar 11.5 21:16:40 10° NNW 21:19:37 21° NNE 21:19:37 21° NNE visible
05 Mar 12.3 22:59:39 10° NW 23:00:20 14° NNW 23:00:20 14° NNW visible
06 Mar 11.9 19:02:53 10° N 19:04:05 11° N 19:05:17 10° NNE visible
06 Mar 11.4 20:45:55 10° NNW 20:49:38 19° NNE 20:49:38 19° NNE visible
06 Mar 11.9 22:28:47 10° NNW 22:30:21 19° NNW 22:30:21 19° NNW visible
07 Mar 11.4 20:15:10 10° NNW 20:18:37 17° NNE 20:19:39 16° NE visible
07 Mar 11.4 21:57:57 10° NNW 22:00:22 26° NNW 22:00:22 26° NNW visible
08 Mar 11.6 19:44:24 10° NNW 19:47:24 15° NNE 19:49:42 12° NE visible
08 Mar 11.0 21:27:09 10° NNW 21:30:25 31° N 21:30:25 31° N visible
08 Mar 12.4 23:10:40 10° NW 23:11:08 12° NW 23:11:08 12° NW visible
